Time,TemperatureF,DewpointF,PressureIn,WindDirection,WindDirectionDegrees,WindSpeedMPH,WindSpeedGustMPH,Humidity,HourlyPrecipIn,Conditions,Clouds,dailyrainin,SoftwareType,DateUTC
2013-02-21 00:00:00,28.0,12.0,-100.00,NW,324,15.0,26.0,51,-99.99,,,-99.99,,2013-02-21 05:00:00,
2013-02-21 00:22:00,28.0,12.0,-100.00,NW,324,15.0,26.0,51,-99.99,,,-99.99,,2013-02-21 05:22:00,
2013-02-21 00:37:00,28.0,12.0,-100.00,NW,324,15.0,26.0,51,-99.99,,,-99.99,,2013-02-21 05:37:00,
2013-02-21 00:46:00,28.0,12.0,-100.00,NW,324,15.0,26.0,51,-99.99,,,-99.99,,2013-02-21 05:46:00,
2013-02-21 01:00:00,27.0,11.0,-100.00,NW,322,19.0,28.0,51,-99.99,,,-99.99,,2013-02-21 06:00:00,
2013-02-21 01:21:00,27.0,11.0,-100.00,NW,322,19.0,28.0,51,-99.99,,,-99.99,,2013-02-21 06:21:00,
2013-02-21 01:31:00,27.0,11.0,-100.00,NW,322,19.0,28.0,51,-99.99,,,-99.99,,2013-02-21 06:31:00,
2013-02-21 01:42:00,27.0,11.0,-100.00,NW,322,19.0,28.0,51,-99.99,,,-99.99,,2013-02-21 06:42:00,
2013-02-21 01:52:00,27.0,11.0,-100.00,NW,322,19.0,28.0,51,-99.99,,,-99.99,,2013-02-21 06:52:00,
2013-02-21 02:00:00,27.0,12.0,-100.00,NW,312,13.0,29.0,54,-99.99,,,-99.99,,2013-02-21 07:00:00,
2013-02-21 02:22:00,27.0,12.0,-100.00,NW,312,13.0,29.0,54,-99.99,,,-99.99,,2013-02-21 07:22:00,
2013-02-21 02:32:00,27.0,12.0,-100.00,NW,312,13.0,29.0,54,-99.99,,,-99.99,,2013-02-21 07:32:00,
2013-02-21 02:42:00,27.0,12.0,-100.00,NW,312,13.0,29.0,54,-99.99,,,-99.99,,2013-02-21 07:42:00,
2013-02-21 02:52:00,27.0,12.0,-100.00,NW,312,13.0,29.0,54,-99.99,,,-99.99,,2013-02-21 07:52:00,
2013-02-21 03:00:00,26.0,12.0,-100.00,NW,310,12.0,25.0,57,-99.99,,,-99.99,,2013-02-21 08:00:00,
2013-02-21 03:21:00,26.0,12.0,-100.00,NW,310,12.0,25.0,57,-99.99,,,-99.99,,2013-02-21 08:21:00,
2013-02-21 03:32:00,26.0,12.0,-100.00,NW,310,12.0,25.0,57,-99.99,,,-99.99,,2013-02-21 08:32:00,
2013-02-21 03:42:00,26.0,12.0,-100.00,NW,310,12.0,25.0,57,-99.99,,,-99.99,,2013-02-21 08:42:00,
2013-02-21 03:52:00,26.0,12.0,-100.00,NW,310,12.0,25.0,57,-99.99,,,-99.99,,2013-02-21 08:52:00,
2013-02-21 04:00:00,26.0,12.0,-100.00,NW,310,12.0,22.0,58,-99.99,,,-99.99,,2013-02-21 09:00:00,
2013-02-21 04:22:00,26.0,12.0,-100.00,NW,310,12.0,22.0,58,-99.99,,,-99.99,,2013-02-21 09:22:00,
2013-02-21 04:32:00,26.0,12.0,-100.00,NW,310,12.0,22.0,58,-99.99,,,-99.99,,2013-02-21 09:32:00,
2013-02-21 04:42:00,26.0,12.0,-100.00,NW,310,12.0,22.0,58,-99.99,,,-99.99,,2013-02-21 09:42:00,
2013-02-21 04:52:00,26.0,12.0,-100.00,NW,310,12.0,22.0,58,-99.99,,,-99.99,,2013-02-21 09:52:00,
2013-02-21 05:00:00,26.0,12.0,-100.00,NNW,336,11.0,24.0,57,-99.99,,,-99.99,,2013-02-21 10:00:00,
2013-02-21 05:21:00,26.0,12.0,-100.00,NNW,336,11.0,24.0,57,-99.99,,,-99.99,,2013-02-21 10:21:00,
2013-02-21 05:31:00,26.0,12.0,-100.00,NNW,336,11.0,24.0,57,-99.99,,,-99.99,,2013-02-21 10:31:00,
2013-02-21 05:41:00,26.0,12.0,-100.00,NNW,336,11.0,24.0,57,-99.99,,,-99.99,,2013-02-21 10:41:00,
2013-02-21 05:51:00,26.0,12.0,-100.00,NNW,336,11.0,24.0,57,-99.99,,,-99.99,,2013-02-21 10:51:00,
2013-02-21 06:00:00,26.0,11.0,-100.00,NNW,332,16.0,26.0,56,-99.99,,,-99.99,,2013-02-21 11:00:00,
2013-02-21 06:21:00,26.0,11.0,-100.00,NNW,332,16.0,26.0,56,-99.99,,,-99.99,,2013-02-21 11:21:00,
2013-02-21 06:31:00,26.0,11.0,-100.00,NNW,332,16.0,26.0,56,-99.99,,,-99.99,,2013-02-21 11:31:00,
2013-02-21 06:41:00,26.0,11.0,-100.00,NNW,332,16.0,26.0,56,-99.99,,,-99.99,,2013-02-21 11:41:00,
2013-02-21 06:52:00,26.0,11.0,-100.00,NNW,332,16.0,26.0,56,-99.99,,,-99.99,,2013-02-21 11:52:00,
2013-02-21 07:00:00,26.0,12.0,-100.00,NW,308,9.0,27.0,57,-99.99,,,-99.99,,2013-02-21 12:00:00,
2013-02-21 07:22:00,26.0,12.0,-100.00,NW,308,9.0,27.0,57,-99.99,,,-99.99,,2013-02-21 12:22:00,
2013-02-21 07:32:00,26.0,12.0,-100.00,NW,308,9.0,27.0,57,-99.99,,,-99.99,,2013-02-21 12:32:00,
2013-02-21 07:43:00,26.0,12.0,-100.00,NW,308,9.0,27.0,57,-99.99,,,-99.99,,2013-02-21 12:43:00,
2013-02-21 07:53:00,26.0,12.0,-100.00,NW,308,9.0,27.0,57,-99.99,,,-99.99,,2013-02-21 12:53:00,
2013-02-21 08:00:00,26.0,12.0,-100.00,NW,310,17.0,28.0,55,-99.99,,,-99.99,,2013-02-21 13:00:00,
2013-02-21 08:22:00,26.0,12.0,-100.00,NW,310,17.0,28.0,55,-99.99,,,-99.99,,2013-02-21 13:22:00,
2013-02-21 08:32:00,26.0,12.0,-100.00,NW,310,17.0,28.0,55,-99.99,,,-99.99,,2013-02-21 13:32:00,
2013-02-21 08:42:00,26.0,12.0,-100.00,NW,310,17.0,28.0,55,-99.99,,,-99.99,,2013-02-21 13:42:00,
2013-02-21 08:52:00,26.0,12.0,-100.00,NW,310,17.0,28.0,55,-99.99,,,-99.99,,2013-02-21 13:52:00,
2013-02-21 09:00:00,27.0,12.0,-100.00,North,349,19.0,29.0,54,-99.99,,,-99.99,,2013-02-21 14:00:00,
2013-02-21 09:22:00,27.0,12.0,-100.00,North,349,19.0,29.0,54,-99.99,,,-99.99,,2013-02-21 14:22:00,
2013-02-21 09:32:00,27.0,12.0,-100.00,North,349,19.0,29.0,54,-99.99,,,-99.99,,2013-02-21 14:32:00,
2013-02-21 09:42:00,27.0,12.0,-100.00,North,349,19.0,29.0,54,-99.99,,,-99.99,,2013-02-21 14:42:00,
2013-02-21 09:52:00,27.0,12.0,-100.00,North,349,19.0,29.0,54,-99.99,,,-99.99,,2013-02-21 14:52:00,
2013-02-21 10:00:00,29.0,13.0,-100.00,NNW,345,16.0,29.0,51,-99.99,,,-99.99,,2013-02-21 15:00:00,
2013-02-21 10:22:00,29.0,13.0,-100.00,NNW,345,16.0,29.0,51,-99.99,,,-99.99,,2013-02-21 15:22:00,
2013-02-21 10:32:00,29.0,13.0,-100.00,NNW,345,16.0,29.0,51,-99.99,,,-99.99,,2013-02-21 15:32:00,
2013-02-21 10:42:00,29.0,13.0,-100.00,NNW,345,16.0,29.0,51,-99.99,,,-99.99,,2013-02-21 15:42:00,
2013-02-21 10:52:00,29.0,13.0,-100.00,NNW,345,16.0,29.0,51,-99.99,,,-99.99,,2013-02-21 15:52:00,
2013-02-21 11:00:00,31.0,16.0,-100.00,NW,318,21.0,29.0,54,-99.99,,,-99.99,,2013-02-21 16:00:00,
2013-02-21 11:22:00,31.0,16.0,-100.00,NW,318,21.0,29.0,54,-99.99,,,-99.99,,2013-02-21 16:22:00,
2013-02-21 11:32:00,31.0,16.0,-100.00,NW,318,21.0,29.0,54,-99.99,,,-99.99,,2013-02-21 16:32:00,
2013-02-21 11:42:00,31.0,16.0,-100.00,NW,318,21.0,29.0,54,-99.99,,,-99.99,,2013-02-21 16:42:00,
2013-02-21 11:52:00,31.0,16.0,-100.00,NW,318,21.0,29.0,54,-99.99,,,-99.99,,2013-02-21 16:52:00,
2013-02-21 12:00:00,32.0,14.0,-100.00,NNW,341,14.0,30.0,48,-99.99,,,-99.99,,2013-02-21 17:00:00,
2013-02-21 12:22:00,32.0,14.0,-100.00,NNW,341,14.0,30.0,48,-99.99,,,-99.99,,2013-02-21 17:22:00,
2013-02-21 12:32:00,32.0,14.0,-100.00,NNW,341,14.0,30.0,48,-99.99,,,-99.99,,2013-02-21 17:32:00,
2013-02-21 12:42:00,32.0,14.0,-100.00,NNW,341,14.0,30.0,48,-99.99,,,-99.99,,2013-02-21 17:42:00,
2013-02-21 12:52:00,32.0,14.0,-100.00,NNW,341,14.0,30.0,48,-99.99,,,-99.99,,2013-02-21 17:52:00,
2013-02-21 13:00:00,32.0,17.0,-100.00,NW,308,15.0,29.0,53,-99.99,,,-99.99,,2013-02-21 18:00:00,
2013-02-21 13:22:00,32.0,17.0,-100.00,NW,308,15.0,29.0,53,-99.99,,,-99.99,,2013-02-21 18:22:00,
2013-02-21 13:32:00,32.0,17.0,-100.00,NW,308,15.0,29.0,53,-99.99,,,-99.99,,2013-02-21 18:32:00,
2013-02-21 13:42:00,32.0,17.0,-100.00,NW,308,15.0,29.0,53,-99.99,,,-99.99,,2013-02-21 18:42:00,
2013-02-21 13:52:00,32.0,17.0,-100.00,NW,308,15.0,29.0,53,-99.99,,,-99.99,,2013-02-21 18:52:00,
2013-02-21 14:00:00,33.0,17.0,-100.00,NW,319,21.0,29.0,50,-99.99,,,-99.99,,2013-02-21 19:00:00,
2013-02-21 14:22:00,33.0,17.0,-100.00,NW,319,21.0,29.0,50,-99.99,,,-99.99,,2013-02-21 19:22:00,
2013-02-21 14:32:00,33.0,17.0,-100.00,NW,319,21.0,29.0,50,-99.99,,,-99.99,,2013-02-21 19:32:00,
2013-02-21 14:42:00,33.0,17.0,-100.00,NW,319,21.0,29.0,50,-99.99,,,-99.99,,2013-02-21 19:42:00,
2013-02-21 14:52:00,33.0,17.0,-100.00,NW,319,21.0,29.0,50,-99.99,,,-99.99,,2013-02-21 19:52:00,
2013-02-21 15:00:00,35.0,18.0,-100.00,NNW,337,20.0,31.0,51,-99.99,,,-99.99,,2013-02-21 20:00:00,
2013-02-21 15:21:00,35.0,18.0,-100.00,NNW,337,20.0,31.0,51,-99.99,,,-99.99,,2013-02-21 20:21:00,
2013-02-21 15:32:00,35.0,18.0,-100.00,NNW,337,20.0,31.0,51,-99.99,,,-99.99,,2013-02-21 20:32:00,
2013-02-21 15:42:00,35.0,18.0,-100.00,NNW,337,20.0,31.0,51,-99.99,,,-99.99,,2013-02-21 20:42:00,
2013-02-21 15:53:00,35.0,18.0,-100.00,NNW,337,20.0,31.0,51,-99.99,,,-99.99,,2013-02-21 20:53:00,
2013-02-21 16:00:00,35.0,18.0,-100.00,NW,319,15.0,32.0,49,-99.99,,,-99.99,,2013-02-21 21:00:00,
2013-02-21 16:22:00,35.0,18.0,-100.00,NW,319,15.0,32.0,49,-99.99,,,-99.99,,2013-02-21 21:22:00,
2013-02-21 16:32:00,35.0,18.0,-100.00,NW,319,15.0,32.0,49,-99.99,,,-99.99,,2013-02-21 21:32:00,
2013-02-21 16:42:00,35.0,18.0,-100.00,NW,319,15.0,32.0,49,-99.99,,,-99.99,,2013-02-21 21:42:00,
2013-02-21 16:52:00,35.0,18.0,-100.00,NW,319,15.0,32.0,49,-99.99,,,-99.99,,2013-02-21 21:52:00,
2013-02-21 17:00:00,35.0,19.0,-100.00,NNW,341,10.0,26.0,52,-99.99,,,-99.99,,2013-02-21 22:00:00,
2013-02-21 17:22:00,35.0,19.0,-100.00,NNW,341,10.0,26.0,52,-99.99,,,-99.99,,2013-02-21 22:22:00,
2013-02-21 17:32:00,35.0,19.0,-100.00,NNW,341,10.0,26.0,52,-99.99,,,-99.99,,2013-02-21 22:32:00,
2013-02-21 17:42:00,35.0,19.0,-100.00,NNW,341,10.0,26.0,52,-99.99,,,-99.99,,2013-02-21 22:42:00,
2013-02-21 17:52:00,35.0,19.0,-100.00,NNW,341,10.0,26.0,52,-99.99,,,-99.99,,2013-02-21 22:52:00,
2013-02-21 18:00:00,34.0,19.0,-100.00,NW,310,15.0,26.0,53,-99.99,,,-99.99,,2013-02-21 23:00:00,
2013-02-21 18:21:00,34.0,19.0,-100.00,NW,310,15.0,26.0,53,-99.99,,,-99.99,,2013-02-21 23:21:00,
2013-02-21 18:32:00,34.0,19.0,-100.00,NW,310,15.0,26.0,53,-99.99,,,-99.99,,2013-02-21 23:32:00,
2013-02-21 18:42:00,34.0,19.0,-100.00,NW,310,15.0,26.0,53,-99.99,,,-99.99,,2013-02-21 23:42:00,
2013-02-21 18:53:00,34.0,19.0,-100.00,NW,310,15.0,26.0,53,-99.99,,,-99.99,,2013-02-21 23:53:00,
2013-02-21 19:00:00,34.0,19.0,-100.00,NW,318,15.0,24.0,53,-99.99,,,-99.99,,2013-02-22 00:00:00,
2013-02-21 19:32:00,34.0,19.0,-100.00,NW,318,15.0,24.0,53,-99.99,,,-99.99,,2013-02-22 00:32:00,
2013-02-21 19:42:00,34.0,19.0,-100.00,NW,318,15.0,24.0,53,-99.99,,,-99.99,,2013-02-22 00:42:00,
2013-02-21 19:52:00,34.0,19.0,-100.00,NW,318,15.0,24.0,53,-99.99,,,-99.99,,2013-02-22 00:52:00,
2013-02-21 20:00:00,34.0,20.0,-100.00,NW,312,10.0,22.0,55,-99.99,,,-99.99,,2013-02-22 01:00:00,
2013-02-21 20:32:00,34.0,20.0,-100.00,NW,312,10.0,22.0,55,-99.99,,,-99.99,,2013-02-22 01:32:00,
2013-02-21 20:42:00,34.0,20.0,-100.00,NW,312,10.0,22.0,55,-99.99,,,-99.99,,2013-02-22 01:42:00,
2013-02-21 20:52:00,34.0,20.0,-100.00,NW,312,10.0,22.0,55,-99.99,,,-99.99,,2013-02-22 01:52:00,
2013-02-21 21:00:00,34.0,21.0,-100.00,NNW,344,10.0,21.0,60,-99.99,,,-99.99,,2013-02-22 02:00:00,
2013-02-21 21:32:00,34.0,21.0,-100.00,NNW,344,10.0,21.0,60,-99.99,,,-99.99,,2013-02-22 02:32:00,
2013-02-21 21:42:00,34.0,21.0,-100.00,NNW,344,10.0,21.0,60,-99.99,,,-99.99,,2013-02-22 02:42:00,
2013-02-21 21:52:00,34.0,21.0,-100.00,NNW,344,10.0,21.0,60,-99.99,,,-99.99,,2013-02-22 02:52:00,
2013-02-21 22:00:00,34.0,20.0,-100.00,NW,314,14.0,22.0,57,-99.99,,,-99.99,,2013-02-22 03:00:00,
2013-02-21 22:22:00,34.0,20.0,-100.00,NW,314,14.0,22.0,57,-99.99,,,-99.99,,2013-02-22 03:22:00,
2013-02-21 22:32:00,34.0,20.0,-100.00,NW,314,14.0,22.0,57,-99.99,,,-99.99,,2013-02-22 03:32:00,
2013-02-21 22:42:00,34.0,20.0,-100.00,NW,314,14.0,22.0,57,-99.99,,,-99.99,,2013-02-22 03:42:00,
2013-02-21 22:52:00,34.0,20.0,-100.00,NW,314,14.0,22.0,57,-99.99,,,-99.99,,2013-02-22 03:52:00,
2013-02-21 23:00:00,33.0,20.0,-100.00,North,354,11.0,26.0,58,-99.99,,,-99.99,,2013-02-22 04:00:00,
2013-02-21 23:21:00,33.0,20.0,-100.00,North,354,11.0,26.0,58,-99.99,,,-99.99,,2013-02-22 04:21:00,
2013-02-21 23:32:00,33.0,20.0,-100.00,North,354,11.0,26.0,58,-99.99,,,-99.99,,2013-02-22 04:32:00,
2013-02-21 23:42:00,33.0,20.0,-100.00,North,354,11.0,26.0,58,-99.99,,,-99.99,,2013-02-22 04:42:00,
2013-02-21 23:52:00,33.0,20.0,-100.00,North,354,11.0,26.0,58,-99.99,,,-99.99,,2013-02-22 04:52:00,